[[{"header":{"parameterUnit":"m.s-1","parameterCategory":2,"la1":30.2991,"la2":30.254,"lo1":-89.0895,"lo2":-89.0444,"dy":0.0017,"dx":0.0017,"nx":28,"ny":28,"refTime":"2025-06-21T21:00:00:Z","depth":"0","parameterNumber":2,"parameterNumberName":"U-component_of_CURRENTS"},"data":[0,0,0,0,0,0,0,0,0,0,0,0,0,0,0,0,0,0,0,0,0,0,0,0,0,0,0,0,0,0,0,0,0,0,0,0,0,0,0,0,0,0,0,0,0,0,0,0,0,0,0,0,0,0,0,0,0,0,0.1522,0.1522,0,0.144,0.1439,0.1437,0.1351,0.1351,0.135,0.1349,0.1216,0.1213,0.1211,0,0,0,0,0,0,0,0,0,0,0,0,0,0.1563,0.1563,0.1522,0.1522,0.1521,0.144,0.1439,0.1437,0.1352,0.1351,0.1349,0.1348,0.1217,0.1214,0.1211,0,0,0,0,0,0,0,0,0,0,0,0,0,0.1517,0.1563,0.1523,0.1471,0.1466,0.144,0.1439,0.1437,0.1352,0.1351,0.1349,0.1348,0.1218,0.1214,0.121,0.1212,0,0,0.1198,0.1196,0,0,0,0,0,0,0,0,0.1519,0.1515,0.1479,0.1475,0.1469,0.1408,0.1404,0.136,0.1352,0.1392,0.1349,0.1347,0.1279,0.127,0.1253,0.1205,0.12,0.1197,0.1195,0.1193,0.1192,0,0,0,0,0,0,0,0.1523,0.1518,0.1486,0.1479,0.1472,0.1438,0.143,0.1395,0.134,0.1388,0.1382,0.1379,0.1275,0.1257,0.1249,0.1198,0.1197,0.1194,0.1191,0.119,0.1202,0.1204,0,0,0,0,0,0,0.1544,0.1521,0.1489,0.1484,0.1495,0.1438,0.1429,0.1426,0.1341,0.1329,0.138,0.1375,0.1265,0.1254,0.1244,0.1316,0.1193,0.1189,0.1187,0.1199,0.1202,0.1205,0,0,0,0,0,0,0.1545,0.1542,0.1492,0.1503,0.1495,0.144,0.1436,0.1425,0.1413,0.1337,0.1322,0.1381,0.1263,0.125,0.1246,0.1307,0.1188,0.1184,0.1196,0.12,0.1204,0.1412,0,0,0,0,0,0,0.1546,0.1542,0.1553,0.1505,0.1495,0.1502,0.1437,0.1424,0.1414,0.1407,0.1333,0.1318,0.1261,0.1253,0.1242,0.1299,0.1181,0.1192,0.1198,0.1203,0.1401,0.1422,0.144,0,0,0,0,0,0.1548,0.1572,0.1554,0.155,0.151,0.1504,0.1497,0.1449,0.1416,0.1429,0.1388,0.1321,0.1278,0.1253,0.1239,0.1296,0.119,0.1196,0.1202,0.1393,0.1418,0.144,0,0,0,0,0,0,0.1593,0.1564,0.1543,0.1556,0.1543,0.1491,0.1501,0.1465,0.1441,0.1435,0.1353,0.1339,0.1359,0.13,0.1273,0.1315,0.1224,0.1228,0.1373,0.1397,0.1416,0.1448,0.1177,0,0,0,0,0,0.1611,0.1622,0.1589,0.1603,0.1602,0.1554,0.1547,0.1519,0.1488,0.1475,0.1427,0.1386,0.1375,0.1363,0.1333,0.1354,0.1371,0.1383,0.1402,0.1419,0.1437,0.1523,0.1553,0.1226,0.1226,0.1226,0,0,0.1629,0.1619,0.1621,0.1614,0.1597,0.1611,0.1546,0.1552,0.1569,0.1466,0.1481,0.145,0.1395,0.1427,0.143,0.1384,0.1534,0.1427,0.1443,0.1451,0.1533,0.1565,0.1594,0.123,0.1229,0.1229,0,0,0.1676,0.1669,0.1692,0.1692,0.1686,0.1667,0.1677,0.1645,0.1639,0.1652,0.1598,0.1616,0.1566,0.1566,0.1553,0.1662,0.1635,0.1643,0.1769,0.1854,0.1883,0.1907,0.2032,0.2066,0.1654,0.1654,0.1655,0,0.1698,0.1721,0.1701,0.1727,0.1738,0.17,0.1732,0.1731,0.1704,0.1726,0.1681,0.169,0.1641,0.1711,0.175,0.171,0.1763,0.1687,0.1884,0.1909,0.1931,0.2051,0.2087,0.1665,0.1664,0.1663,0.1662,0,0.1756,0.1779,0.1801,0.1821,0.1837,0.1864,0.1861,0.1887,0.1875,0.1872,0.1937,0.1901,0.1908,0.1907,0.1857,0.1993,0.1988,0.1904,0.1834,0.1977,0.2095,0.2128,0.168,0.1676,0.1673,0.1671,0,0,0.1787,0.183,0.1837,0.1864,0.1891,0.1906,0.1971,0.2019,0.2073,0.2077,0.2159,0.2169,0.2161,0.2147,0.2112,0.2184,0.24,0.2123,0.2123,0.2265,0.2643,0.2777,0.2825,0.2358,0.2363,0.2368,0.2687,0,0.1836,0.19,0.1915,0.1986,0.202,0.2034,0.2096,0.2141,0.2175,0.2249,0.227,0.2316,0.2249,0.2271,0.2347,0.2366,0.2486,0.2324,0.2465,0.2471,0.2586,0.2867,0.3003,0.331,0.2718,0.2724,0.2727,0,0.1887,0.1924,0.1995,0.2071,0.209,0.2129,0.2234,0.2283,0.2386,0.242,0.2501,0.2502,0.2625,0.2524,0.2715,0.2619,0.2667,0.2688,0.2699,0.2769,0.2666,0.3056,0.3391,0.3325,0.2777,0.2773,0.277,0,0.191,0.1986,0.2045,0.2066,0.2143,0.2191,0.2238,0.2335,0.2408,0.2534,0.2611,0.2728,0.2799,0.2884,0.2945,0.2846,0.3162,0.3014,0.3204,0.3213,0.333,0.3342,0.363,0.319,0.3189,0.3188,0.3187,0,0.1956,0.2002,0.2056,0.2084,0.217,0.2215,0.2327,0.2391,0.2519,0.2624,0.2697,0.2821,0.289,0.3053,0.3076,0.3308,0.3287,0.3325,0.3338,0.3412,0.3427,0.3363,0.3219,0.32,0.3197,0.3195,0.3193,0,0.1964,0.2002,0.2068,0.2148,0.2178,0.2233,0.2357,0.2433,0.2563,0.271,0.2761,0.2954,0.3189,0.3305,0.3476,0.3512,0.3629,0.3736,0.3853,0.3877,0.3963,0.3823,0.387,0.3747,0.4032,0.4037,0.4042,0,0.1968,0.2002,0.2092,0.2118,0.2149,0.2237,0.2293,0.243,0.2514,0.2784,0.2855,0.3151,0.335,0.3744,0.3917,0.4142,0.3876,0.4347,0.4172,0.4103,0.3954,0.3614,0.3475,0.4429,0.4437,0.4443,0.4448,0,0.1963,0.1995,0.2037,0.2095,0.2147,0.2228,0.232,0.2414,0.2581,0.2752,0.3002,0.3204,0.3665,0.4003,0.4345,0.4471,0.4218,0.4481,0.4385,0.4324,0.3998,0.384,0.4076,0.4504,0.4498,0.4494,0.4491,0.4489,0.1936,0.1961,0.2004,0.2057,0.2112,0.2186,0.2246,0.2385,0.2563,0.281,0.3029,0.336,0.3928,0.4471,0.4606,0.4964,0.4583,0.4913,0.477,0.4445,0.4273,0.467,0.5097,0.5095,0.5093,0.5091,0.509,0,0.1879,0.1909,0.1955,0.2011,0.2034,0.2097,0.2226,0.2296,0.2481,0.2809,0.3057,0.3686,0.4221,0.4676,0.5248,0.5242,0.4959,0.515,0.4709,0.4562,0.4998,0.4967,0.5416,0.5416,0.5416,0.5416,0.5416,0.5416,0.1843,0.1854,0.1885,0.1901,0.1938,0.1975,0.2037,0.2185,0.2417,0.2833,0.32,0.3513,0.4199,0.501,0.5379,0.5347,0.4879,0.4827,0.4517,0.4879,0.4841,0.4806,0.4751,0.5147,0.5147,0.4041,0.4033,0.4027]},{"header":{"parameterUnit":"m.s-1","parameterCategory":2,"la1":30.2991,"la2":30.254,"lo1":-89.0895,"lo2":-89.0444,"dy":0.0017,"dx":0.0017,"nx":28,"ny":28,"refTime":"2025-06-21T21:00:00:Z","depth":"0","parameterNumber":3,"parameterNumberName":"V-component_of_CURRENTS"},"data":[0,0,0,0,0,0,0,0,0,0,0,0,0,0,0,0,0,0,0,0,0,0,0,0,0,0,0,0,0,0,0,0,0,0,0,0,0,0,0,0,0,0,0,0,0,0,0,0,0,0,0,0,0,0,0,0,0,0,-0.0087,-0.0088,0,-0.0194,-0.0196,-0.0197,-0.0293,-0.0294,-0.0295,-0.0296,-0.0485,-0.0489,-0.0493,0,0,0,0,0,0,0,0,0,0,0,0,0,-0.0011,-0.0012,-0.0087,-0.0088,-0.0089,-0.0194,-0.0196,-0.0197,-0.0293,-0.0294,-0.0295,-0.0296,-0.0484,-0.0488,-0.0493,0,0,0,0,0,0,0,0,0,0,0,0,0,-0.0074,-0.0012,-0.0087,-0.0149,-0.0155,-0.0194,-0.0196,-0.0198,-0.0292,-0.0294,-0.0295,-0.0297,-0.0482,-0.0488,-0.0494,-0.0501,0,0,-0.0513,-0.0515,0,0,0,0,0,0,0,0,-0.0071,-0.0077,-0.0138,-0.0145,-0.0152,-0.0231,-0.0238,-0.0303,-0.0292,-0.0241,-0.0296,-0.0298,-0.0406,-0.0418,-0.0435,-0.051,-0.0518,-0.0513,-0.0517,-0.052,-0.0521,0,0,0,0,0,0,0,-0.0066,-0.0073,-0.0131,-0.014,-0.0148,-0.0187,-0.0198,-0.0251,-0.0316,-0.0246,-0.0253,-0.0263,-0.041,-0.0429,-0.0441,-0.0521,-0.0513,-0.0519,-0.0522,-0.0525,-0.0659,-0.0659,0,0,0,0,0,0,-0.0047,-0.0069,-0.0127,-0.0134,-0.0113,-0.0187,-0.0199,-0.0205,-0.0314,-0.0331,-0.0261,-0.0267,-0.0418,-0.0433,-0.0448,-0.0474,-0.052,-0.0525,-0.0529,-0.0659,-0.0659,-0.0659,0,0,0,0,0,0,-0.0044,-0.005,-0.0123,-0.0103,-0.0115,-0.0186,-0.0193,-0.0206,-0.0229,-0.0324,-0.0344,-0.0271,-0.042,-0.0439,-0.0493,-0.0482,-0.0528,-0.0534,-0.0659,-0.0659,-0.0659,-0.052,0,0,0,0,0,0,-0.0042,-0.0049,-0.0044,-0.0102,-0.0115,-0.0136,-0.0191,-0.0207,-0.0232,-0.024,-0.0339,-0.0358,-0.0422,-0.0483,-0.0499,-0.0491,-0.0538,-0.066,-0.0659,-0.0659,-0.0524,-0.0515,-0.0506,0,0,0,0,0,-0.0038,-0.0023,-0.0043,-0.005,-0.0107,-0.0134,-0.0145,-0.0202,-0.0231,-0.023,-0.0299,-0.0355,-0.0494,-0.0487,-0.0506,-0.05,-0.066,-0.0659,-0.0659,-0.0528,-0.0516,-0.0507,0,0,0,0,0,0,0.0017,-0.0033,-0.0056,-0.0055,-0.0087,-0.015,-0.0154,-0.0191,-0.0243,-0.0255,-0.0347,-0.037,-0.0415,-0.0477,-0.0467,-0.0541,-0.0589,-0.0592,-0.0483,-0.0473,-0.0464,-0.0422,-0.0543,0,0,0,0,0,0.0034,0.0029,-0.0022,-0.0018,-0.0031,-0.0089,-0.0107,-0.0143,-0.0197,-0.0221,-0.0286,-0.0362,-0.0427,-0.0463,-0.0526,-0.0559,-0.0609,-0.0572,-0.0563,-0.0555,-0.0536,-0.061,-0.0605,-0.0658,-0.0658,-0.0658,0,0,0.0058,0.003,0.0028,-0.0007,-0.0038,-0.0041,-0.0104,-0.0121,-0.0125,-0.0233,-0.0256,-0.033,-0.0429,-0.0468,-0.0495,-0.0519,-0.0562,-0.0555,-0.0546,-0.0532,-0.0609,-0.0604,-0.0599,-0.0658,-0.0658,-0.0658,0,0,0.0107,0.008,0.0091,0.007,0.0033,0.0,0.0001,-0.0052,-0.0078,-0.0106,-0.0191,-0.0247,-0.034,-0.0403,-0.0451,-0.043,-0.0511,-0.0463,-0.0384,-0.0456,-0.0451,-0.0448,-0.0479,-0.048,-0.046,-0.046,-0.0459,0,0.0138,0.0142,0.0093,0.01,0.0094,0.0026,0.0045,0.0013,-0.0049,-0.006,-0.0097,-0.0224,-0.0305,-0.0361,-0.0357,-0.0406,-0.0452,-0.0411,-0.0441,-0.0439,-0.0438,-0.0471,-0.0474,-0.0453,-0.0454,-0.0454,-0.0455,0,0.0189,0.0195,0.0203,0.0188,0.0179,0.0184,0.0139,0.0128,0.009,0.0052,0.0002,-0.0102,-0.0177,-0.0218,-0.0282,-0.0319,-0.0352,-0.0416,-0.0457,-0.0424,-0.0461,-0.0466,-0.0443,-0.0446,-0.0448,-0.0449,0,0,0.0247,0.0241,0.0242,0.0258,0.0227,0.0228,0.0232,0.0215,0.0223,0.0156,0.0157,0.0043,-0.0013,-0.007,-0.0164,-0.0225,-0.0254,-0.0307,-0.0314,-0.0316,-0.0385,-0.0384,-0.039,-0.0329,-0.033,-0.033,-0.0403,0,0.0301,0.034,0.032,0.0366,0.0384,0.0342,0.0355,0.0332,0.0298,0.0283,0.0179,0.0136,0.004,0.0005,-0.0068,-0.0211,-0.0265,-0.0226,-0.0436,-0.044,-0.0428,-0.0396,-0.0327,-0.0385,-0.0409,-0.041,-0.041,0,0.0351,0.0371,0.0424,0.0458,0.0464,0.048,0.0495,0.0497,0.0455,0.0427,0.0368,0.0288,0.02,0.0106,-0.0089,-0.0062,-0.0201,-0.0312,-0.032,-0.037,-0.045,-0.0432,-0.0394,-0.0572,-0.0419,-0.0418,-0.0418,0,0.0407,0.0448,0.0496,0.0503,0.0524,0.0547,0.0557,0.0538,0.0558,0.0515,0.0521,0.04,0.0342,0.0161,-0.0049,-0.0078,-0.0261,-0.034,-0.0463,-0.0464,-0.047,-0.047,-0.0612,-0.0476,-0.0476,-0.0476,-0.0475,0,0.0463,0.0502,0.0527,0.055,0.0619,0.0611,0.0672,0.0663,0.0667,0.0695,0.0596,0.0591,0.0347,0.0218,0.0007,-0.0217,-0.0221,-0.0427,-0.0483,-0.0418,-0.0412,-0.0623,-0.0798,-0.0478,-0.0478,-0.0477,-0.0477,0,0.0506,0.0519,0.0579,0.0621,0.0642,0.0686,0.0751,0.0792,0.0786,0.0821,0.0816,0.0731,0.0572,0.0342,0.0057,-0.0133,-0.0483,-0.0447,-0.0324,-0.0364,-0.0646,-0.0817,-0.1044,-0.1192,-0.0585,-0.0586,-0.0586,0,0.0528,0.0561,0.0629,0.0672,0.0692,0.0759,0.0808,0.0836,0.0884,0.0904,0.0928,0.0824,0.0768,0.0404,0.0066,-0.0255,-0.0501,-0.043,-0.0485,-0.063,-0.0863,-0.0949,-0.1066,-0.0432,-0.0431,-0.043,-0.0429,0,0.0572,0.0591,0.064,0.0726,0.0788,0.0875,0.0948,0.1011,0.1043,0.109,0.1127,0.1102,0.0796,0.0554,0.0138,-0.0129,-0.0574,-0.0426,-0.0625,-0.0785,-0.0843,-0.1021,-0.0396,-0.0422,-0.0423,-0.0424,-0.0424,-0.0424,0.0599,0.0644,0.0708,0.0792,0.087,0.0979,0.1065,0.1153,0.1258,0.136,0.1308,0.1367,0.1037,0.0504,0.0095,-0.0481,-0.0588,-0.0648,-0.0847,-0.0919,-0.1056,-0.0389,-0.0458,-0.0458,-0.0459,-0.046,-0.046,0,0.0632,0.069,0.0773,0.0881,0.0978,0.1013,0.1153,0.1254,0.1393,0.1533,0.1596,0.1616,0.114,0.0614,-0.0125,-0.0699,-0.0973,-0.1044,-0.1156,-0.1268,-0.0688,-0.067,-0.0728,-0.0728,-0.0727,-0.0727,-0.0727,-0.0727,0.0656,0.0734,0.0783,0.0949,0.1035,0.1181,0.1272,0.1422,0.1574,0.1838,0.2023,0.2127,0.1897,0.0445,-0.061,-0.099,-0.1497,-0.1625,-0.1902,-0.1489,-0.1465,-0.1443,-0.146,-0.1682,-0.1684,-0.2334,-0.2341,-0.2347]}],[{"header":{"parameterUnit":"m.s-1","parameterCategory":2,"la1":30.2991,"la2":30.254,"lo1":-89.0895,"lo2":-89.0444,"dy":0.0017,"dx":0.0017,"nx":28,"ny":28,"refTime":"2025-06-21T21:00:00:Z","depth":"2","parameterNumber":2,"parameterNumberName":"U-component_of_CURRENTS"},"data":[0,0,0,0,0,0,0,0,0,0,0,0,0,0,0,0,0,0,0,0,0,0,0,0,0,0,0,0,0,0,0,0,0,0,0,0,0,0,0,0,0,0,0,0,0,0,0,0,0,0,0,0,0,0,0,0,0,0,0.2016,0.2017,0,0.2157,0.2158,0.2159,0.2203,0.2202,0.2202,0.2201,0.2291,0.2293,0.2296,0,0,0,0,0,0,0,0,0,0,0,0,0,0.18,0.1803,0.2015,0.2017,0.2019,0.2156,0.2158,0.216,0.2203,0.2202,0.2202,0.2201,0.229,0.2293,0.2296,0,0,0,0,0,0,0,0,0,0,0,0,0,0.191,0.1804,0.2015,0.2059,0.2064,0.2156,0.2158,0.216,0.2203,0.2202,0.2202,0.2201,0.2288,0.2293,0.2297,0.2338,0,0,0.231,0.2312,0,0,0,0,0,0,0,0,0.1904,0.1918,0.205,0.2056,0.2062,0.2163,0.2115,0.2218,0.2203,0.2148,0.2201,0.22,0.2245,0.2253,0.2279,0.2343,0.2346,0.231,0.2313,0.2315,0.2316,0,0,0,0,0,0,0,0.1896,0.1912,0.2069,0.2053,0.206,0.2077,0.2092,0.2135,0.2197,0.2153,0.2157,0.2176,0.2247,0.2275,0.2281,0.2348,0.231,0.2314,0.2317,0.2318,0.2502,0.2505,0,0,0,0,0,0,0.1884,0.1905,0.2065,0.2074,0.1982,0.2082,0.2098,0.213,0.2197,0.2208,0.2177,0.2178,0.2268,0.2276,0.2284,0.2363,0.2315,0.2319,0.2321,0.25,0.2503,0.2505,0,0,0,0,0,0,0.1879,0.1897,0.2059,0.1993,0.2015,0.2086,0.2122,0.2133,0.2161,0.2216,0.2225,0.2193,0.2268,0.2278,0.2343,0.2366,0.2321,0.2324,0.2497,0.2501,0.2504,0.2504,0,0,0,0,0,0,0.1872,0.1895,0.1914,0.1993,0.2019,0.2117,0.2123,0.2136,0.2175,0.2178,0.2234,0.2241,0.2268,0.2337,0.2347,0.2371,0.2328,0.2494,0.2499,0.2503,0.2501,0.2507,0.2512,0,0,0,0,0,0.1864,0.1894,0.1914,0.1934,0.2043,0.2118,0.2133,0.2178,0.2177,0.2198,0.2244,0.224,0.2372,0.2342,0.2354,0.2379,0.2492,0.2498,0.2503,0.2499,0.2506,0.2512,0,0,0,0,0,0,0.181,0.1904,0.1927,0.1985,0.2047,0.2126,0.2153,0.2178,0.2233,0.2233,0.2271,0.2283,0.2352,0.2372,0.2338,0.245,0.2431,0.2439,0.2424,0.2431,0.2437,0.2432,0.2331,0,0,0,0,0,0.1808,0.1857,0.1941,0.1986,0.2016,0.2081,0.2116,0.215,0.2208,0.2231,0.2268,0.232,0.2386,0.241,0.2467,0.2521,0.2564,0.2548,0.2554,0.2558,0.2566,0.2656,0.267,0.2523,0.2523,0.2522,0,0,0.1798,0.1858,0.1884,0.1978,0.2027,0.2082,0.21,0.2157,0.2202,0.2232,0.2293,0.2342,0.2409,0.248,0.251,0.2494,0.2627,0.2564,0.2567,0.2574,0.2663,0.2677,0.269,0.2526,0.2526,0.2525,0,0,0.1804,0.1856,0.1898,0.1954,0.2035,0.2081,0.2095,0.2173,0.2206,0.2276,0.2319,0.2384,0.2461,0.2522,0.2562,0.2634,0.2659,0.2646,0.2662,0.2749,0.2761,0.2773,0.2854,0.2872,0.2641,0.2641,0.2641,0,0.1784,0.186,0.1918,0.1974,0.2022,0.2077,0.2127,0.2177,0.2264,0.2303,0.2293,0.2448,0.2487,0.2601,0.2624,0.2644,0.2696,0.2623,0.2754,0.2766,0.2778,0.2858,0.2879,0.2641,0.2641,0.2641,0.2641,0,0.1827,0.1887,0.1915,0.2006,0.2059,0.2114,0.2189,0.2235,0.2269,0.2325,0.243,0.2498,0.2591,0.2613,0.2637,0.2747,0.276,0.2753,0.2727,0.2792,0.2873,0.2895,0.2642,0.2642,0.2642,0.2642,0,0,0.179,0.1919,0.193,0.1977,0.2083,0.2131,0.2204,0.2297,0.2351,0.242,0.2503,0.2607,0.264,0.2689,0.2733,0.2797,0.2916,0.2802,0.2806,0.2866,0.3115,0.309,0.3111,0.2929,0.2933,0.2936,0.3141,0,0.1807,0.1903,0.1969,0.2055,0.211,0.2185,0.2252,0.2338,0.2406,0.2493,0.2576,0.2672,0.2672,0.2721,0.279,0.2897,0.2971,0.2861,0.3059,0.3065,0.3021,0.3134,0.2702,0.2846,0.3162,0.3165,0.3168,0,0.1836,0.1899,0.1981,0.2094,0.2123,0.2175,0.2291,0.236,0.2491,0.2549,0.2651,0.272,0.2853,0.2824,0.3035,0.2966,0.3044,0.3106,0.3115,0.3105,0.3079,0.2834,0.2872,0.3204,0.3201,0.3198,0.3196,0,0.1795,0.1911,0.1973,0.2014,0.2142,0.2186,0.2248,0.2372,0.2455,0.2589,0.2669,0.2812,0.2914,0.3026,0.3164,0.311,0.3385,0.3329,0.3384,0.3383,0.3062,0.3027,0.3476,0.3476,0.3475,0.3475,0.3474,0,0.1806,0.1859,0.1954,0.1994,0.2064,0.2156,0.2246,0.233,0.2476,0.2582,0.2693,0.2815,0.2969,0.3137,0.3219,0.3392,0.3445,0.3423,0.3448,0.3053,0.3016,0.3353,0.3335,0.3482,0.3481,0.3479,0.3478,0,0.1775,0.1842,0.1914,0.2021,0.2054,0.21,0.2244,0.2318,0.2453,0.2599,0.2653,0.2871,0.3091,0.3256,0.3472,0.3484,0.363,0.3672,0.3204,0.3171,0.3548,0.3529,0.3747,0.3748,0.3749,0.3749,0.375,0,0.1777,0.1809,0.1906,0.1944,0.1995,0.2075,0.2142,0.2287,0.238,0.2629,0.2706,0.2968,0.3136,0.3462,0.3443,0.359,0.375,0.3364,0.3182,0.3581,0.3583,0.3562,0.3543,0.2755,0.2747,0.2741,0.2736,0,0.1772,0.1798,0.1856,0.1922,0.1984,0.2056,0.216,0.2231,0.2407,0.2548,0.2772,0.2928,0.3136,0.3095,0.3271,0.3288,0.3295,0.325,0.3801,0.2768,0.2666,0.2662,0.2671,0.2681,0.2687,0.2691,0.2694,0.2696,0.1762,0.1787,0.1852,0.191,0.1972,0.203,0.2067,0.2187,0.2322,0.2467,0.2674,0.2756,0.2758,0.2781,0.2812,0.2813,0.3015,0.2921,0.2931,0.2949,0.2812,0.2719,0.2718,0.2724,0.2728,0.2733,0.2736,0,0.1754,0.1792,0.1843,0.1905,0.1936,0.1992,0.2082,0.2092,0.2192,0.2286,0.2431,0.2175,0.2176,0.2292,0.2118,0.2186,0.2053,0.2228,0.1985,0.2038,0.2085,0.1897,0.1565,0.1564,0.1562,0.156,0,0,0.1759,0.1795,0.1814,0.1853,0.1893,0.1918,0.1947,0.1954,0.1984,0.1921,0.1868,0.1975,0.2079,0.1715,0.1713,0.1646,0.1838,0.1589,0.2493,0.2247,0.2293,0.2422,0.2186,0,0,0,0,0]},{"header":{"parameterUnit":"m.s-1","parameterCategory":2,"la1":30.2991,"la2":30.254,"lo1":-89.0895,"lo2":-89.0444,"dy":0.0017,"dx":0.0017,"nx":28,"ny":28,"refTime":"2025-06-21T21:00:00:Z","depth":"2","parameterNumber":3,"parameterNumberName":"V-component_of_CURRENTS"},"data":[0,0,0,0,0,0,0,0,0,0,0,0,0,0,0,0,0,0,0,0,0,0,0,0,0,0,0,0,0,0,0,0,0,0,0,0,0,0,0,0,0,0,0,0,0,0,0,0,0,0,0,0,0,0,0,0,0,0,-0.0091,-0.0091,0,-0.0134,-0.0135,-0.0135,-0.0168,-0.0168,-0.0168,-0.0168,-0.0248,-0.025,-0.0252,0,0,0,0,0,0,0,0,0,0,0,0,0,-0.0066,-0.0067,-0.0091,-0.0092,-0.0092,-0.0134,-0.0135,-0.0135,-0.0168,-0.0168,-0.0168,-0.0169,-0.0248,-0.025,-0.0252,0,0,0,0,0,0,0,0,0,0,0,0,0,-0.009,-0.0067,-0.0091,-0.0113,-0.0115,-0.0134,-0.0135,-0.0136,-0.0168,-0.0168,-0.0168,-0.0169,-0.0247,-0.025,-0.0252,-0.0262,0,0,-0.0261,-0.0262,0,0,0,0,0,0,0,0,-0.0089,-0.0091,-0.0109,-0.0111,-0.0114,-0.0146,-0.0155,-0.018,-0.0167,-0.0148,-0.0168,-0.0169,-0.0217,-0.0222,-0.0229,-0.0266,-0.0269,-0.0261,-0.0263,-0.0264,-0.0265,0,0,0,0,0,0,0,-0.0087,-0.009,-0.0108,-0.011,-0.0113,-0.0131,-0.0135,-0.016,-0.0181,-0.015,-0.0152,-0.0156,-0.0219,-0.0226,-0.0231,-0.027,-0.0261,-0.0264,-0.0265,-0.0266,-0.0331,-0.0331,0,0,0,0,0,0,-0.0079,-0.0088,-0.0107,-0.011,-0.0102,-0.0131,-0.0135,-0.0135,-0.018,-0.0186,-0.0156,-0.0158,-0.0221,-0.0228,-0.0234,-0.0246,-0.0264,-0.0267,-0.0268,-0.0331,-0.0331,-0.0331,0,0,0,0,0,0,-0.0078,-0.008,-0.0105,-0.01,-0.0104,-0.0131,-0.0131,-0.0136,-0.0139,-0.0184,-0.0191,-0.0154,-0.0222,-0.0231,-0.025,-0.025,-0.0268,-0.0271,-0.0331,-0.0331,-0.0331,-0.0271,0,0,0,0,0,0,-0.0077,-0.008,-0.007,-0.0099,-0.0104,-0.0107,-0.0131,-0.0137,-0.0142,-0.0144,-0.0184,-0.0193,-0.0223,-0.0245,-0.0253,-0.0254,-0.0273,-0.0331,-0.0331,-0.0331,-0.0273,-0.0269,-0.0266,0,0,0,0,0,-0.0076,-0.0063,-0.0069,-0.0071,-0.0092,-0.0107,-0.0111,-0.0132,-0.0141,-0.0137,-0.0165,-0.0191,-0.0252,-0.0247,-0.0256,-0.0258,-0.0331,-0.0331,-0.0331,-0.0275,-0.027,-0.0266,0,0,0,0,0,0,-0.0041,-0.0066,-0.0073,-0.0066,-0.008,-0.0112,-0.0107,-0.0124,-0.0142,-0.0143,-0.0186,-0.0196,-0.0214,-0.0243,-0.0238,-0.0278,-0.0298,-0.0299,-0.0252,-0.0248,-0.0244,-0.0232,-0.0275,0,0,0,0,0,-0.0029,-0.0028,-0.0053,-0.0045,-0.005,-0.0076,-0.0082,-0.0096,-0.012,-0.0128,-0.0156,-0.0191,-0.0221,-0.0239,-0.0266,-0.0285,-0.0318,-0.0295,-0.0291,-0.0288,-0.0284,-0.0337,-0.0338,-0.0331,-0.0331,-0.0331,0,0,-0.0011,-0.0025,-0.0023,-0.0037,-0.005,-0.0053,-0.008,-0.0084,-0.0087,-0.0134,-0.0141,-0.0174,-0.0222,-0.0242,-0.0254,-0.0267,-0.0305,-0.0288,-0.0284,-0.0283,-0.0338,-0.0338,-0.0339,-0.0331,-0.0331,-0.0331,0,0,0.0019,0.0013,0.0021,0.001,-0.0006,-0.0025,-0.0022,-0.0048,-0.0058,-0.007,-0.0108,-0.0137,-0.0178,-0.0216,-0.0241,-0.0234,-0.0279,-0.0246,-0.0222,-0.0273,-0.0274,-0.0276,-0.0305,-0.0309,-0.0249,-0.0249,-0.0249,0,0.0044,0.0048,0.0023,0.0026,0.0025,-0.0009,0.0002,-0.0016,-0.0044,-0.005,-0.0063,-0.0127,-0.0167,-0.0205,-0.0206,-0.0226,-0.0255,-0.0232,-0.0268,-0.027,-0.0272,-0.0302,-0.0308,-0.0246,-0.0247,-0.0247,-0.0247,0,0.007,0.0079,0.0085,0.0075,0.0071,0.0077,0.0048,0.0043,0.0026,0.0003,-0.0024,-0.0078,-0.0118,-0.014,-0.0172,-0.021,-0.0225,-0.0252,-0.0275,-0.0269,-0.0301,-0.0308,-0.0242,-0.0243,-0.0244,-0.0245,0,0,0.0113,0.0106,0.011,0.0123,0.01,0.0104,0.0097,0.0084,0.0093,0.0048,0.0049,-0.0022,-0.0051,-0.0082,-0.0132,-0.0183,-0.0224,-0.0221,-0.0225,-0.0242,-0.0324,-0.0303,-0.0309,-0.0259,-0.0261,-0.0262,-0.0334,0,0.0146,0.017,0.0151,0.0182,0.0197,0.0168,0.017,0.0152,0.0134,0.0126,0.0054,0.0035,-0.0031,-0.0043,-0.0107,-0.0185,-0.0242,-0.0201,-0.0334,-0.0337,-0.0314,-0.0316,-0.0358,-0.0424,-0.0341,-0.0342,-0.0343,0,0.0178,0.0192,0.0225,0.0248,0.0253,0.0259,0.027,0.0268,0.0233,0.0218,0.017,0.0125,0.0049,-0.0005,-0.0153,-0.0123,-0.022,-0.0291,-0.0296,-0.0303,-0.0329,-0.0421,-0.044,-0.0355,-0.0354,-0.0353,-0.0352,0,0.0228,0.0249,0.0283,0.0287,0.0297,0.0309,0.0313,0.0296,0.0318,0.0275,0.0292,0.0185,0.016,0.0013,-0.0123,-0.0145,-0.0275,-0.0327,-0.0404,-0.0403,-0.0478,-0.0481,-0.0445,-0.0445,-0.0445,-0.0445,-0.0445,0,0.0273,0.0307,0.031,0.0331,0.0383,0.0365,0.0413,0.0401,0.0405,0.0443,0.0344,0.0367,0.0163,0.0075,-0.0089,-0.0245,-0.0255,-0.0396,-0.0424,-0.0456,-0.0456,-0.0431,-0.0428,-0.0448,-0.0447,-0.0447,-0.0446,0,0.0333,0.033,0.0377,0.0396,0.0408,0.0446,0.0492,0.0531,0.0517,0.0565,0.0561,0.0505,0.0401,0.0207,-0.0005,-0.017,-0.0341,-0.04,-0.0405,-0.0431,-0.045,-0.0444,-0.0511,-0.0511,-0.0511,-0.0511,-0.0511,0,0.0372,0.0394,0.0432,0.047,0.0484,0.0533,0.0575,0.0582,0.0635,0.0666,0.0709,0.0643,0.0632,0.035,0.0019,-0.0264,-0.0282,-0.0475,-0.0536,-0.0438,-0.0459,-0.0452,-0.0446,-0.0617,-0.0618,-0.0618,-0.0619,0,0.0444,0.0447,0.0485,0.0553,0.0604,0.0673,0.0737,0.0802,0.0822,0.089,0.0984,0.0988,0.0703,0.0408,0.0012,-0.0189,-0.0436,-0.0495,-0.0413,-0.0571,-0.0538,-0.0557,-0.0548,-0.0625,-0.0624,-0.0624,-0.0623,-0.0623,0.0499,0.0538,0.0574,0.0642,0.0713,0.0811,0.0887,0.0983,0.1106,0.1205,0.1187,0.1138,0.0732,0.0205,-0.01,-0.0446,-0.0441,-0.0601,-0.06,-0.0598,-0.0576,-0.0541,-0.0625,-0.0624,-0.0624,-0.0623,-0.0623,0,0.0549,0.0591,0.0664,0.0747,0.0838,0.0859,0.0998,0.1095,0.1273,0.1306,0.1387,0.0945,0.0612,0.0213,-0.0334,-0.0631,-0.0674,-0.0688,-0.0714,-0.0707,-0.0702,-0.0685,-0.0763,-0.0763,-0.0764,-0.0764,0,0,0.058,0.0642,0.0672,0.0825,0.0903,0.1039,0.1129,0.13,0.1359,0.14,0.1297,0.1151,0.0614,0.0178,-0.0224,-0.0478,-0.0504,-0.0518,-0.039,-0.0367,-0.0357,-0.0653,-0.0619,0,0,0,0,0]}],[{"header":{"parameterUnit":"m.s-1","parameterCategory":2,"la1":30.2991,"la2":30.254,"lo1":-89.0895,"lo2":-89.0444,"dy":0.0017,"dx":0.0017,"nx":28,"ny":28,"refTime":"2025-06-21T21:00:00:Z","depth":"4","parameterNumber":2,"parameterNumberName":"U-component_of_CURRENTS"},"data":[0,0,0,0,0,0,0,0,0,0,0,0,0,0,0,0,0,0,0,0,0,0,0,0,0,0,0,0,0,0,0,0,0,0,0,0,0,0,0,0,0,0,0,0,0,0,0,0,0,0,0,0,0,0,0,0,0,0,0.084,0.084,0,0.0869,0.0869,0.0869,0.0905,0.0905,0.0906,0.0907,0.0971,0.0972,0.0972,0,0,0,0,0,0,0,0,0,0,0,0,0,0.0773,0.0774,0.0839,0.084,0.0841,0.0869,0.0869,0.0869,0.0904,0.0905,0.0906,0.0907,0.097,0.0971,0.0973,0,0,0,0,0,0,0,0,0,0,0,0,0,0.0799,0.0774,0.0839,0.0864,0.0867,0.0869,0.0869,0.0869,0.0904,0.0905,0.0907,0.0908,0.097,0.0971,0.0973,0.0955,0,0,0.0977,0.0977,0,0,0,0,0,0,0,0,0.0797,0.0801,0.086,0.0863,0.0866,0.0887,0.0869,0.0901,0.0904,0.0887,0.0907,0.0909,0.0947,0.095,0.0948,0.0958,0.0961,0.0977,0.0978,0.0978,0.0979,0,0,0,0,0,0,0,0.0796,0.08,0.0848,0.0861,0.0864,0.086,0.0865,0.0874,0.0907,0.0888,0.0892,0.09,0.0949,0.0946,0.095,0.0962,0.0977,0.0978,0.0979,0.0979,0.1044,0.1045,0,0,0,0,0,0,0.08,0.0798,0.0847,0.0849,0.0838,0.0861,0.0866,0.0876,0.0907,0.0913,0.0899,0.0901,0.0943,0.0948,0.0952,0.1028,0.0978,0.0979,0.098,0.1043,0.1044,0.1045,0,0,0,0,0,0,0.0798,0.0804,0.0846,0.0827,0.0832,0.0861,0.0872,0.0876,0.09,0.0915,0.0922,0.0922,0.0945,0.095,0.0969,0.1027,0.098,0.0981,0.1042,0.1043,0.1045,0.1118,0,0,0,0,0,0,0.0796,0.0803,0.0818,0.0827,0.0834,0.0863,0.0871,0.0876,0.0903,0.0908,0.0936,0.0942,0.0946,0.0966,0.097,0.1028,0.0982,0.1041,0.1043,0.1044,0.1114,0.1122,0.1128,0,0,0,0,0,0.0793,0.0803,0.0818,0.0825,0.0851,0.0864,0.0867,0.0889,0.0903,0.0915,0.0926,0.0942,0.0981,0.0967,0.0971,0.1032,0.104,0.1042,0.1044,0.1111,0.112,0.1128,0,0,0,0,0,0,0.0782,0.0808,0.0825,0.0844,0.0863,0.0872,0.0888,0.09,0.0916,0.0927,0.0938,0.0944,0.0989,0.0985,0.097,0.1053,0.102,0.1023,0.107,0.1078,0.1085,0.1118,0.0983,0,0,0,0,0,0.0787,0.0804,0.0826,0.0844,0.0858,0.0877,0.0889,0.0903,0.0916,0.0926,0.0956,0.0977,0.0995,0.1015,0.1029,0.1062,0.105,0.1107,0.1113,0.1119,0.1147,0.1147,0.1157,0.1052,0.1052,0.1052,0,0,0.0788,0.0805,0.0816,0.0844,0.0862,0.0881,0.0887,0.0912,0.0945,0.093,0.0993,0.1002,0.1006,0.105,0.1072,0.1059,0.1139,0.1122,0.1127,0.1153,0.1151,0.1161,0.117,0.1053,0.1053,0.1053,0,0,0.0795,0.0817,0.0837,0.0856,0.089,0.0896,0.0909,0.0942,0.098,0.1021,0.1026,0.1055,0.1098,0.1111,0.1119,0.1166,0.117,0.1192,0.1263,0.1262,0.1271,0.1279,0.1261,0.1266,0.12,0.12,0.12,0,0.0799,0.0825,0.0843,0.0869,0.0889,0.0907,0.0931,0.0965,0.1006,0.1034,0.1055,0.1112,0.1127,0.1161,0.1204,0.1186,0.1187,0.1233,0.1272,0.128,0.1287,0.1266,0.1272,0.1204,0.1204,0.1203,0.1203,0,0.0815,0.0849,0.0861,0.09,0.0921,0.0942,0.0986,0.1026,0.1072,0.1102,0.117,0.1189,0.1221,0.1245,0.1256,0.1322,0.1305,0.1276,0.1255,0.1302,0.1276,0.1281,0.1209,0.1208,0.1207,0.1206,0,0,0.0794,0.086,0.0868,0.0902,0.094,0.0959,0.1014,0.1059,0.1099,0.1168,0.123,0.1291,0.1315,0.1327,0.1342,0.1377,0.1434,0.1384,0.1382,0.1372,0.1439,0.1396,0.1395,0.1426,0.1428,0.1429,0.1396,0,0.0805,0.0856,0.0885,0.0938,0.0967,0.1002,0.1051,0.1099,0.1148,0.1215,0.1261,0.1328,0.1341,0.1386,0.1417,0.1434,0.1453,0.1446,0.1391,0.1389,0.135,0.1402,0.1434,0.1399,0.14,0.1401,0.1401,0,0.0809,0.0845,0.0897,0.0971,0.0989,0.1021,0.1085,0.1141,0.1215,0.1268,0.1323,0.1364,0.1441,0.1451,0.1484,0.1489,0.1491,0.1493,0.149,0.1435,0.1355,0.1345,0.1408,0.1408,0.1407,0.1407,0.1406,0,0.0778,0.0856,0.0897,0.0921,0.0998,0.1038,0.1087,0.1152,0.1208,0.1317,0.1357,0.1421,0.1481,0.1495,0.1522,0.1521,0.1548,0.1509,0.1451,0.1446,0.146,0.1452,0.1531,0.1531,0.1531,0.1531,0.1531,0,0.0765,0.0804,0.0895,0.0916,0.0976,0.1047,0.1112,0.1171,0.1258,0.1312,0.1396,0.1437,0.1513,0.1533,0.1533,0.1511,0.1533,0.1488,0.1449,0.1487,0.1483,0.1461,0.1454,0.153,0.153,0.153,0.1531,0,0.0719,0.0778,0.0832,0.0927,0.0963,0.1014,0.1124,0.1162,0.1263,0.1336,0.1387,0.1474,0.1511,0.1533,0.1558,0.1517,0.1498,0.1477,0.1523,0.1482,0.1388,0.1385,0.1403,0.1401,0.14,0.1399,0.1398,0,0.0694,0.0718,0.0824,0.0858,0.0905,0.0993,0.1038,0.1156,0.1196,0.1331,0.1351,0.1445,0.1488,0.1452,0.1499,0.1472,0.1463,0.144,0.1436,0.1422,0.1382,0.1381,0.1379,0.1396,0.1396,0.1395,0.1395,0,0.0639,0.0683,0.0723,0.0797,0.0858,0.092,0.1004,0.1025,0.1158,0.1255,0.1304,0.135,0.1387,0.141,0.142,0.1393,0.1453,0.1426,0.1428,0.1424,0.1414,0.1375,0.1375,0.1391,0.1391,0.1392,0.1392,0,0.0591,0.0603,0.0665,0.0725,0.0798,0.0834,0.0885,0.0947,0.1012,0.1167,0.1177,0.1267,0.1364,0.1367,0.1358,0.1359,0.1341,0.1304,0.1312,0.1318,0.1315,0.1291,0.1216,0,0,0,0,0,0.0546,0.0556,0.0592,0.0653,0.072,0.0766,0.0855,0.0905,0.1029,0.1037,0.1114,0.1149,0.1201,0.1241,0.1223,0.1315,0.1332,0.1291,0.1289,0.1366,0.1371,0.1381,0,0,0,0,0,0,0.0516,0.0546,0.0562,0.0587,0.0613,0.0675,0.0726,0.0799,0.0813,0.0946,0.0965,0.1095,0.1135,0.119,0.1201,0.1218,0.12,0.1361,0.1359,0.1364,0.1368,0.1372,0.1383,0,0,0,0,0]},{"header":{"parameterUnit":"m.s-1","parameterCategory":2,"la1":30.2991,"la2":30.254,"lo1":-89.0895,"lo2":-89.0444,"dy":0.0017,"dx":0.0017,"nx":28,"ny":28,"refTime":"2025-06-21T21:00:00:Z","depth":"4","parameterNumber":3,"parameterNumberName":"V-component_of_CURRENTS"},"data":[0,0,0,0,0,0,0,0,0,0,0,0,0,0,0,0,0,0,0,0,0,0,0,0,0,0,0,0,0,0,0,0,0,0,0,0,0,0,0,0,0,0,0,0,0,0,0,0,0,0,0,0,0,0,0,0,0,0,-0.0208,-0.0209,0,-0.0244,-0.0245,-0.0245,-0.0274,-0.0274,-0.0274,-0.0274,-0.0355,-0.0356,-0.0358,0,0,0,0,0,0,0,0,0,0,0,0,0,-0.0175,-0.0175,-0.0208,-0.0209,-0.0209,-0.0244,-0.0245,-0.0245,-0.0274,-0.0274,-0.0274,-0.0275,-0.0354,-0.0356,-0.0358,0,0,0,0,0,0,0,0,0,0,0,0,0,-0.0198,-0.0175,-0.0208,-0.0227,-0.023,-0.0244,-0.0245,-0.0245,-0.0274,-0.0274,-0.0274,-0.0275,-0.0353,-0.0356,-0.0359,-0.0368,0,0,-0.0367,-0.0369,0,0,0,0,0,0,0,0,-0.0197,-0.0199,-0.0224,-0.0226,-0.0228,-0.0255,-0.0262,-0.0289,-0.0273,-0.0257,-0.0274,-0.0275,-0.0325,-0.033,-0.0336,-0.0372,-0.0375,-0.0368,-0.0369,-0.0371,-0.0371,0,0,0,0,0,0,0,-0.0195,-0.0198,-0.0223,-0.0225,-0.0227,-0.0238,-0.0242,-0.0267,-0.0289,-0.0258,-0.0261,-0.0264,-0.0327,-0.0333,-0.0338,-0.0377,-0.0368,-0.037,-0.0372,-0.0373,-0.0471,-0.0472,0,0,0,0,0,0,-0.0189,-0.0196,-0.0222,-0.0224,-0.0213,-0.0238,-0.0242,-0.0246,-0.0288,-0.0294,-0.0264,-0.0265,-0.0328,-0.0334,-0.0341,-0.0385,-0.0371,-0.0373,-0.0375,-0.047,-0.0472,-0.0473,0,0,0,0,0,0,-0.0188,-0.0191,-0.022,-0.0211,-0.0215,-0.0238,-0.0242,-0.0247,-0.0259,-0.0292,-0.0299,-0.0273,-0.0328,-0.0337,-0.0359,-0.0387,-0.0374,-0.0377,-0.0469,-0.0471,-0.0472,-0.0454,0,0,0,0,0,0,-0.0187,-0.0191,-0.0192,-0.021,-0.0215,-0.0227,-0.0242,-0.0247,-0.026,-0.0263,-0.0302,-0.0309,-0.0329,-0.0354,-0.0361,-0.0391,-0.0379,-0.0468,-0.047,-0.0472,-0.0454,-0.0455,-0.0456,0,0,0,0,0,-0.0186,-0.0181,-0.0192,-0.0195,-0.0217,-0.0227,-0.023,-0.0248,-0.026,-0.0262,-0.0285,-0.0308,-0.0372,-0.0356,-0.0365,-0.0396,-0.0467,-0.047,-0.0472,-0.0453,-0.0455,-0.0456,0,0,0,0,0,0,-0.0168,-0.0184,-0.0197,-0.0198,-0.0212,-0.0231,-0.0235,-0.0249,-0.0268,-0.0273,-0.0305,-0.0314,-0.0355,-0.0371,-0.0354,-0.0431,-0.043,-0.0434,-0.0413,-0.0415,-0.0416,-0.0419,-0.0382,0,0,0,0,0,-0.0165,-0.0167,-0.0186,-0.0189,-0.0195,-0.0217,-0.0225,-0.0236,-0.0255,-0.0264,-0.0297,-0.0333,-0.037,-0.0385,-0.0421,-0.0447,-0.0453,-0.0479,-0.048,-0.048,-0.049,-0.0509,-0.0512,-0.0479,-0.0479,-0.0479,0,0,-0.0161,-0.0169,-0.0172,-0.0185,-0.0199,-0.0199,-0.0223,-0.0231,-0.0239,-0.027,-0.0298,-0.034,-0.0379,-0.0417,-0.0437,-0.0431,-0.0489,-0.0483,-0.0483,-0.0492,-0.0512,-0.0515,-0.0517,-0.0481,-0.0481,-0.048,0,0,-0.0148,-0.016,-0.0157,-0.0166,-0.0181,-0.0189,-0.0191,-0.0218,-0.0239,-0.0263,-0.03,-0.0344,-0.0396,-0.043,-0.0452,-0.0478,-0.05,-0.0508,-0.0509,-0.0527,-0.053,-0.0532,-0.0522,-0.0523,-0.0501,-0.0501,-0.0501,0,-0.0142,-0.014,-0.0158,-0.0156,-0.0158,-0.0182,-0.0176,-0.0197,-0.0231,-0.0247,-0.027,-0.036,-0.0401,-0.0442,-0.0471,-0.0481,-0.049,-0.0496,-0.0527,-0.0529,-0.0532,-0.0521,-0.0523,-0.0501,-0.0501,-0.0501,-0.0501,0,-0.0126,-0.0126,-0.0123,-0.0126,-0.0131,-0.0127,-0.0153,-0.0171,-0.0202,-0.0228,-0.0288,-0.0345,-0.0394,-0.0432,-0.0469,-0.0521,-0.0519,-0.0528,-0.0517,-0.0534,-0.0521,-0.0524,-0.05,-0.05,-0.05,-0.05,0,0,-0.0104,-0.0108,-0.0109,-0.0105,-0.0112,-0.0112,-0.0124,-0.014,-0.015,-0.021,-0.0237,-0.0332,-0.0375,-0.0406,-0.046,-0.0502,-0.0537,-0.0537,-0.0539,-0.0516,-0.0564,-0.0556,-0.0558,-0.0556,-0.0557,-0.0558,-0.0539,0,-0.0084,-0.0066,-0.0076,-0.006,-0.0051,-0.0073,-0.0079,-0.0102,-0.0136,-0.0171,-0.0245,-0.0295,-0.0357,-0.0397,-0.0446,-0.0527,-0.0548,-0.054,-0.0562,-0.0563,-0.0545,-0.0562,-0.0561,-0.054,-0.0541,-0.0541,-0.0542,0,-0.0065,-0.0052,-0.003,-0.0025,-0.0024,-0.0018,-0.0025,-0.0039,-0.0087,-0.0121,-0.0177,-0.0236,-0.0319,-0.037,-0.0472,-0.0469,-0.0521,-0.0572,-0.0572,-0.0577,-0.056,-0.0529,-0.0546,-0.0546,-0.0545,-0.0545,-0.0545,0,-0.0037,-0.0023,0.0001,0.0003,0.0008,0.0008,0.0005,-0.0024,-0.0032,-0.0094,-0.0106,-0.0197,-0.0246,-0.0334,-0.0452,-0.0467,-0.0554,-0.0565,-0.0587,-0.0585,-0.0602,-0.0601,-0.0618,-0.0618,-0.0618,-0.0619,-0.0619,0,-0.0008,0.0005,0.0016,0.0028,0.0055,0.0037,0.0051,0.0029,0.0004,0.0008,-0.0081,-0.01,-0.025,-0.0318,-0.0422,-0.051,-0.051,-0.0594,-0.0589,-0.0592,-0.059,-0.0602,-0.0601,-0.0618,-0.0618,-0.0618,-0.0618,0,0.0009,0.0017,0.0043,0.0059,0.0067,0.0079,0.0091,0.01,0.0071,0.0073,0.0055,-0.0032,-0.0128,-0.0248,-0.0388,-0.0452,-0.0548,-0.057,-0.0545,-0.0538,-0.0567,-0.0565,-0.0585,-0.0584,-0.0584,-0.0584,-0.0584,0,0.0019,0.0037,0.007,0.0093,0.0101,0.0121,0.0142,0.0128,0.0147,0.0122,0.0131,0.004,-0.0029,-0.0184,-0.0341,-0.0491,-0.0524,-0.0549,-0.0597,-0.0575,-0.0568,-0.0567,-0.0565,-0.0584,-0.0584,-0.0583,-0.0583,0,0.0042,0.0052,0.0078,0.0129,0.0158,0.0192,0.0221,0.0246,0.024,0.0223,0.0207,0.0104,0.0003,-0.0161,-0.0281,-0.0399,-0.053,-0.0547,-0.0549,-0.0595,-0.0574,-0.0567,-0.0566,-0.0583,-0.0583,-0.0583,-0.0583,0,0.0058,0.008,0.0118,0.0162,0.0204,0.025,0.0261,0.0292,0.0305,0.0293,0.0285,0.0157,0.0073,-0.0111,-0.0226,-0.0344,-0.0383,-0.0415,-0.0424,-0.0427,-0.0411,-0.0364,-0.0306,0,0,0,0,0,0.0078,0.0107,0.015,0.0201,0.0245,0.0266,0.0314,0.0324,0.0336,0.0346,0.0321,0.0227,0.0041,-0.0053,-0.0166,-0.0247,-0.042,-0.0384,-0.0464,-0.0579,-0.058,-0.0592,0,0,0,0,0,0,0.0092,0.0133,0.0155,0.0226,0.0263,0.0313,0.034,0.0348,0.0357,0.0351,0.0256,0.0205,0.0019,0.0109,-0.0167,-0.0208,-0.0272,-0.0478,-0.048,-0.0579,-0.0579,-0.058,-0.0593,0,0,0,0,0]}]]